Regional Weather Roundup
Issued by NWS Huntsville, AL

Home | Current Version | Previous Version | Text Only | Print | Product List | Glossary On
Versions: 1 2 3 4 5 6 7 8 9 10 11 12 13 14 15 16 17 18 19 20 21 22 23 24 25 26 27 28 29 30 31 32 33 34 35 36 37 38 39 40 41 42 43 44 45 46 47 48 49 50
000
ASUS44 KHUN 302310
RWRHUN

WEATHER ROUNDUP FOR THE TENNESSEE VALLEY
NATIONAL WEATHER SERVICE HUNTSVILLE AL
600 PM CDT WED JUL 30 2014

ALZ001>004-310000-
NORTHWEST ALABAMA

CITY           SKY/WX    TMP DP  RH WIND       PRES   REMARKS
COURTLAND HCN    N/A     79 N/A N/A N5          N/A
RUSSELLVILLE     N/A     77 N/A N/A MISG        N/A
SHOALS AIRPORT SUNNY     81  57  43 N6        30.08S
SHOALS TVA RES   N/A     79 N/A N/A MISG        N/A
$$

ALZ005>007-016-310000-
NORTH CENTRAL ALABAMA

CITY           SKY/WX    TMP DP  RH WIND       PRES   REMARKS
CULLMAN AG STN   N/A     79 N/A N/A MISG        N/A
DECATUR AP     MOSUNNY   81  59  47 N9        30.07S
HUNTSVILLE AP  MOSUNNY   83  57  41 N8        30.06S
HUN NWS/UAH      N/A     82  53  37 VRB7        N/A
MERIDIANVILLE  MOSUNNY   81  50  34 NE7       30.07S
VINEMONT AP    FAIR      79  57  47 N3        30.09S
$$

ALZ008>010-310000-
NORTHEAST ALABAMA

CITY           SKY/WX    TMP DP  RH WIND       PRES   REMARKS
ALBERTVILLE    SUNNY     79  63  57 NE6       30.07S
FORT PAYNE     SUNNY     77  46  33 NE7       30.06S
SCOTTSBORO AP  SUNNY     79  59  50 CALM      30.06S
SCOTTSBORO HCN   N/A     77 N/A N/A MISG        N/A
VALLEY HEAD      N/A     77 N/A N/A MISG        N/A
$$

TNZ076-096-097-310000-
SOUTHEASTERN MIDDLE TENNESSEE

CITY           SKY/WX    TMP DP  RH WIND       PRES   REMARKS
FAYETTEVILLE   SUNNY     77  55  47 N9        30.08F
TULLAHOMA      SUNNY     75  55  50 NE5       30.10S
WINCHESTER     SUNNY     79  57  47 N7        30.09S
$$

...SURROUNDING SITES...

CITY           SKY/WX    TMP DP  RH WIND       PRES   REMARKS
ATLANTA        MOSUNNY   82  56  40 VRB6      30.02F
ANNISTON       SUNNY     82  55  39 N10       30.03S
BIRMINGHAM     MOSUNNY   83  50  31 N12       30.05S
CHATTANOOGA    PTSUNNY   80  50  34 NE9       30.07S
CORINTH        FAIR      79  57  47 N6        30.07S
DALTON         SUNNY     79  59  50 CALM      30.05S
GADSDEN        MOSUNNY   81  55  41 N8        30.04S
GOLDEN TRNGL   SUNNY     84  59  42 N7        30.07S
HALEYVILLE     FAIR      77  60  55 N6        30.10F
JACKSON TN     PTSUNNY   79  58  48 W3        30.07F
LEWISBURG      FAIR      78  58  50 N3        30.08S
MEMPHIS        CLOUDY    80  57  45 W7        30.07F
NASHVILLE      CLOUDY    79  55  43 N7        30.07F
ROME           SUNNY     82  55  39 N8        30.03S
SAVANNAH       SUNNY     80  59  48 NE5       30.08F
TUPELO         PTSUNNY   79  58  48 N6        30.06F
TUSCALOOSA     MOSUNNY   84  55  36 N10       30.02F
$$

...GULF COAST WEATHER...

CITY           SKY/WX    TMP DP  RH WIND       PRES   REMARKS
GULFPORT       SUNNY     90  56  31 N7        29.98F
PASCAGOULA     SUNNY     85  61  44 VRB6      29.99S
MOBILE         CLOUDY    85  56  37 N7        30.00F
GULF SHORES    CLEAR     85  58  40 N8        29.98R
PENSACOLA      MOSUNNY   83  65  54 S7        29.97S
DESTIN         SUNNY     85  66  53 W7        29.97S
PANAMA CITY    SUNNY     84  67  57 W9        29.97S
APPALACHICOLA  SUNNY     83  64  52 W14       29.96S
$$




USA.gov is the U.S. government's official web portal to all federal, state and local government web resources and services.